TimeAKST,TemperatureF,Dew PointF,Humidity,Sea Level PressureIn,VisibilityMPH,Wind Direction,Wind SpeedMPH,Gust SpeedMPH,PrecipitationIn,Events,Conditions,WindDirDegrees,DateUTC
12:53 AM,-23.1,-27.0,82,30.50,10.0,NNE,6.9,-,N/A,,Partly Cloudy,30,2013-01-19 09:53:00
1:53 AM,-24.0,-29.9,74,30.50,10.0,NNE,5.8,-,N/A,,Clear,20,2013-01-19 10:53:00
2:53 AM,-25.1,-29.0,82,30.49,10.0,North,6.9,-,N/A,,Clear,10,2013-01-19 11:53:00
3:53 AM,-22.0,-29.0,70,30.48,10.0,NNE,8.1,-,N/A,,Partly Cloudy,20,2013-01-19 12:53:00
4:53 AM,-20.9,-26.0,77,30.47,10.0,North,3.5,-,N/A,,Scattered Clouds,360,2013-01-19 13:53:00
5:53 AM,-22.0,-27.0,77,30.45,10.0,NNE,6.9,-,N/A,,Scattered Clouds,20,2013-01-19 14:53:00
6:53 AM,-20.9,-25.1,81,30.45,10.0,NNE,4.6,-,N/A,,Scattered Clouds,20,2013-01-19 15:53:00
7:53 AM,-18.0,-24.0,74,30.43,10.0,NNE,9.2,-,N/A,,Mostly Cloudy,30,2013-01-19 16:53:00
8:53 AM,-11.9,-18.0,74,30.42,10.0,NE,8.1,-,N/A,,Mostly Cloudy,40,2013-01-19 17:53:00
9:53 AM,-9.9,-16.1,74,30.41,10.0,NNE,8.1,-,N/A,,Mostly Cloudy,20,2013-01-19 18:53:00
10:53 AM,-13.0,-18.0,78,30.41,10.0,NNE,8.1,-,N/A,,Overcast,30,2013-01-19 19:53:00
11:53 AM,-8.0,-13.0,79,30.41,10.0,NNE,6.9,-,N/A,,Overcast,30,2013-01-19 20:53:00
12:53 PM,-5.1,-9.9,80,30.39,10.0,NE,6.9,-,N/A,,Overcast,40,2013-01-19 21:53:00
1:53 PM,-4.0,-9.0,79,30.38,10.0,NE,5.8,-,N/A,,Overcast,40,2013-01-19 22:53:00
2:53 PM,-0.0,-6.0,76,30.35,10.0,NE,4.6,-,N/A,,Mostly Cloudy,40,2013-01-19 23:53:00
3:53 PM,-0.9,-8.0,72,30.33,10.0,NE,6.9,-,N/A,,Mostly Cloudy,40,2013-01-20 00:53:00
4:53 PM,1.9,-6.0,69,30.31,10.0,NNE,8.1,-,N/A,,Mostly Cloudy,30,2013-01-20 01:53:00
5:53 PM,1.9,-6.0,69,30.28,10.0,NE,5.8,-,N/A,,Mostly Cloudy,40,2013-01-20 02:53:00
6:53 PM,1.9,-5.1,72,30.27,10.0,NNE,4.6,-,N/A,,Mostly Cloudy,20,2013-01-20 03:53:00
7:53 PM,1.9,-5.1,72,30.25,10.0,NNE,4.6,-,N/A,,Mostly Cloudy,30,2013-01-20 04:53:00
8:53 PM,-0.9,-8.0,72,30.22,10.0,NE,4.6,-,N/A,,Mostly Cloudy,40,2013-01-20 05:53:00
9:53 PM,-5.1,-9.0,83,30.21,10.0,North,3.5,-,N/A,,Scattered Clouds,360,2013-01-20 06:53:00
10:53 PM,-5.1,-9.9,80,30.18,10.0,NE,6.9,-,N/A,,Scattered Clouds,40,2013-01-20 07:53:00
11:53 PM,-4.0,-9.0,79,30.16,10.0,NNE,5.8,-,N/A,,Mostly Cloudy,30,2013-01-20 08:53:00